This is the latest recevied weather packets stored in our database for station/object KB3FKJ. If no packets are shown the sender has not sent any weather packets the latest 10 day(s).
| Time | Temp. | Humidity | Pressure | Rain* | Wind** | Luminosity | Snow |
|---|---|---|---|---|---|---|---|
| 1777400327 | 9.44° C | 93% | 1016.8 hPa | 0 mm | - | 65 W/m² | - |
| 1777400021 | 9.44° C | 93% | 1016.7 hPa | 0 mm | - | 72 W/m² | - |
| 1777399719 | 9.44° C | 93% | 1016.7 hPa | 0 mm | - | 52 W/m² | - |
| 1777399416 | 9.44° C | 93% | 1016.8 hPa | 0 mm | - | 62 W/m² | - |
| 1777399114 | 9.44° C | 93% | 1016.9 hPa | 0 mm | - | 40 W/m² | - |
| 1777398811 | 9.44° C | 93% | 1016.9 hPa | 0 mm | - | 38 W/m² | - |
| 1777398508 | 9.44° C | 93% | 1016.9 hPa | 0 mm | - | 35 W/m² | - |
| 1777398204 | 9.44° C | 93% | 1017.1 hPa | 0 mm | - | 43 W/m² | - |
| 1777397901 | 9.44° C | 94% | 1017 hPa | 0 mm | - | 44 W/m² | - |
| 1777397597 | 9.44° C | 93% | 1016.8 hPa | 0 mm | - | 41 W/m² | - |
| 1777397293 | 9.44° C | 93% | 1016.8 hPa | 0 mm | - | 37 W/m² | - |
| 1777396989 | 9.44° C | 93% | 1016.9 hPa | 0 mm | - | 39 W/m² | - |
| 1777396686 | 9.44° C | 94% | 1017 hPa | 1.27 mm | - | 47 W/m² | - |
| 1777396383 | 9.44° C | 94% | 1016.9 hPa | 0 mm | - | 30 W/m² | - |
| 1777396079 | 9.44° C | 94% | 1017 hPa | 0 mm | - | 46 W/m² | - |
| 1777395775 | 9.44° C | 94% | 1017 hPa | 0 mm | - | 33 W/m² | - |
| 1777395470 | 9.44° C | 94% | 1016.9 hPa | 0 mm | - | 27 W/m² | - |
| 1777395168 | 9.44° C | 93% | 1017 hPa | 0 mm | - | 27 W/m² | - |
| 1777394865 | 8.89° C | 93% | 1017.1 hPa | 0 mm | - | 30 W/m² | - |
| 1777394560 | 9.44° C | 94% | 1017 hPa | 0 mm | - | 27 W/m² | - |
| 1777394258 | 9.44° C | 93% | 1017 hPa | 0 mm | - | 29 W/m² | - |
| 1777393953 | 9.44° C | 93% | 1017.1 hPa | 0 mm | - | 19 W/m² | - |
| 1777393653 | 9.44° C | 93% | 1017.2 hPa | 0 mm | - | 20 W/m² | - |
| 1777393348 | 8.89° C | 92% | 1017.2 hPa | 0 mm | - | 26 W/m² | - |
| 1777393045 | 8.89° C | 92% | 1017.4 hPa | 0 mm | - | 20 W/m² | - |
* Rain latest hour (hover to see other rain measurements)
** Current wind speed in m/s (hover to see current wind gust speed)